,,Stat5,,Stat1,,Stat2,,Stat3,,Stat4,,Wind1,,Wind1,
time,status,PA1M_AVG,status,PR1M_SUM,status,RH1M_AVG,status,SR1M_AVG,status,TA1M_AVG,status,W1dAve1m,status,W1sAve1m,
2000-07-28, 00:00:00,VALID,917.459,VALID,0,VALID,98.3179,VALID,-0.118866,VALID,18.5604,VALID,96,VALID,0,
2000-07-28, 00:01:00,VALID,917.459,VALID,0,VALID,98.3077,VALID,-0.101885,VALID,18.5673,VALID,97,VALID,0,
2000-07-28, 00:02:00,VALID,917.457,VALID,0,VALID,98.3052,VALID,-0.101885,VALID,18.5705,VALID,137,VALID,0,
2000-07-28, 00:03:00,VALID,917.427,VALID,0,VALID,98.2302,VALID,-0.101885,VALID,18.5643,VALID,183,VALID,0,
2000-07-28, 00:04:00,VALID,917.4,VALID,0,VALID,98.103,VALID,-0.101885,VALID,18.5449,VALID,234,VALID,0.0847039,
2000-07-28, 00:05:00,VALID,917.379,VALID,0,VALID,97.9784,VALID,-0.101885,VALID,18.5288,VALID,253,VALID,0.204181,
2000-07-28, 00:06:00,VALID,917.354,VALID,0,VALID,97.911,VALID,-0.0849042,VALID,18.5191,VALID,204,VALID,0,
2000-07-28, 00:07:00,VALID,917.339,VALID,0.2,VALID,97.9326,VALID,-0.0849042,VALID,18.5281,VALID,126,VALID,0,
2000-07-28, 00:08:00,VALID,917.311,VALID,0,VALID,98.0013,VALID,-0.0849042,VALID,18.5442,VALID,109,VALID,0.330859,
2000-07-28, 00:09:00,VALID,917.296,VALID,0,VALID,98.056,VALID,-0.0509425,VALID,18.5668,VALID,107,VALID,0.471094,
2000-07-28, 00:10:00,VALID,917.288,VALID,0,VALID,98.0356,VALID,-0.101885,VALID,18.5645,VALID,102,VALID,0.926883,
2000-07-28, 00:11:00,VALID,917.273,VALID,0,VALID,98.0089,VALID,-0.101885,VALID,18.5511,VALID,90,VALID,0.877262,
2000-07-28, 00:12:00,VALID,917.263,VALID,0,VALID,97.8195,VALID,-0.0169808,VALID,18.5214,VALID,109,VALID,0.595508,
2000-07-28, 00:13:00,VALID,917.267,VALID,0,VALID,97.6885,VALID,0,VALID,18.4791,VALID,123,VALID,0.805469,
2000-07-28, 00:14:00,VALID,917.266,VALID,0,VALID,97.6707,VALID,0,VALID,18.4628,VALID,158,VALID,0.461739,
2000-07-28, 00:15:00,VALID,917.275,VALID,0,VALID,97.5893,VALID,0,VALID,18.43,VALID,179,VALID,0.474095,
2000-07-28, 00:16:00,VALID,917.266,VALID,0,VALID,97.6224,VALID,0,VALID,18.4141,VALID,159,VALID,0.0517578,
2000-07-28, 00:17:00,VALID,917.259,VALID,0,VALID,97.457,VALID,0.0169808,VALID,18.3786,VALID,159,VALID,0.350781,
2000-07-28, 00:18:00,VALID,917.249,VALID,0,VALID,97.4367,VALID,0.0509425,VALID,18.362,VALID,164,VALID,0.274038,
2000-07-28, 00:19:00,VALID,917.234,VALID,0,VALID,97.4431,VALID,0.0169808,VALID,18.3495,VALID,169,VALID,0.231291,
2000-07-28, 00:20:00,VALID,917.204,VALID,0,VALID,97.5422,VALID,0,VALID,18.3497,VALID,174,VALID,0,
2000-07-28, 00:21:00,VALID,917.186,VALID,0,VALID,97.7241,VALID,0,VALID,18.3463,VALID,211,VALID,0,
2000-07-28, 00:22:00,VALID,917.167,VALID,0,VALID,97.7877,VALID,0,VALID,18.3465,VALID,201,VALID,0,
2000-07-28, 00:23:00,VALID,917.137,VALID,0,VALID,97.8449,VALID,-0.0169808,VALID,18.3299,VALID,199,VALID,0,
2000-07-28, 00:24:00,VALID,917.127,VALID,0,VALID,97.9148,VALID,-0.0169808,VALID,18.3333,VALID,184,VALID,0,
2000-07-28, 00:25:00,VALID,917.1,VALID,0,VALID,98.0242,VALID,0,VALID,18.34,VALID,168,VALID,0,
2000-07-28, 00:26:00,VALID,917.083,VALID,0,VALID,98.0026,VALID,0,VALID,18.3433,VALID,157,VALID,0,
2000-07-28, 00:27:00,VALID,917.078,VALID,0,VALID,97.9097,VALID,0,VALID,18.3207,VALID,164,VALID,0,
2000-07-28, 00:28:00,VALID,917.088,VALID,0,VALID,97.9237,VALID,0.0169808,VALID,18.2978,VALID,166,VALID,0,
2000-07-28, 00:29:00,VALID,917.071,VALID,0,VALID,97.9492,VALID,0,VALID,18.2789,VALID,167,VALID,0,
2000-07-28, 00:30:00,VALID,917.069,VALID,0,VALID,97.9733,VALID,-0.0169808,VALID,18.2819,VALID,167,VALID,0,
2000-07-28, 00:31:00,VALID,917.067,VALID,0,VALID,97.9581,VALID,0,VALID,18.2593,VALID,220,VALID,0.0896382,
2000-07-28, 00:32:00,VALID,917.07,VALID,0,VALID,97.864,VALID,-0.0169808,VALID,18.2496,VALID,232,VALID,0.704687,
2000-07-28, 00:33:00,VALID,917.049,VALID,0,VALID,97.5931,VALID,0.0169808,VALID,18.2441,VALID,239,VALID,0.812891,
2000-07-28, 00:34:00,VALID,917.04,VALID,0,VALID,97.471,VALID,-0.0169808,VALID,18.23,VALID,240,VALID,0.619591,
2000-07-28, 00:35:00,VALID,917.02,VALID,0,VALID,97.3261,VALID,0,VALID,18.2531,VALID,217,VALID,0.599507,
2000-07-28, 00:36:00,VALID,917.002,VALID,0,VALID,97.2956,VALID,0,VALID,18.2531,VALID,229,VALID,0.489062,
2000-07-28, 00:37:00,VALID,916.987,VALID,0,VALID,97.1493,VALID,0.0169808,VALID,18.2494,VALID,221,VALID,0.879102,
2000-07-28, 00:38:00,VALID,916.976,VALID,0,VALID,97.0997,VALID,-0.0169808,VALID,18.2365,VALID,206,VALID,0.572917,
2000-07-28, 00:39:00,VALID,916.967,VALID,0,VALID,97.0565,VALID,0,VALID,18.2369,VALID,183,VALID,0.740132,
2000-07-28, 00:40:00,VALID,916.954,VALID,0,VALID,96.9865,VALID,0,VALID,18.2139,VALID,179,VALID,0.97168,
2000-07-28, 00:41:00,VALID,916.965,VALID,0,VALID,97.115,VALID,0,VALID,18.2141,VALID,172,VALID,0.99668,
2000-07-28, 00:42:00,VALID,916.974,VALID,0,VALID,97.2116,VALID,0,VALID,18.1982,VALID,181,VALID,0.926683,
2000-07-28, 00:43:00,VALID,916.977,VALID,0,VALID,97.2434,VALID,0,VALID,18.188,VALID,196,VALID,0.889391,
2000-07-28, 00:44:00,VALID,916.965,VALID,0,VALID,97.382,VALID,-0.0169808,VALID,18.185,VALID,212,VALID,0.735156,
2000-07-28, 00:45:00,VALID,916.966,VALID,0,VALID,97.3998,VALID,0,VALID,18.1889,VALID,226,VALID,0.946484,
2000-07-28, 00:46:00,VALID,916.948,VALID,0,VALID,97.382,VALID,0,VALID,18.1624,VALID,221,VALID,0.995593,
2000-07-28, 00:47:00,VALID,916.936,VALID,0,VALID,97.3757,VALID,0,VALID,18.1564,VALID,220,VALID,0.707648,
2000-07-28, 00:48:00,VALID,916.902,VALID,0,VALID,97.3604,VALID,-0.0169808,VALID,18.1465,VALID,231,VALID,1.02305,
2000-07-28, 00:49:00,VALID,916.872,VALID,0,VALID,97.382,VALID,-0.0169808,VALID,18.147,VALID,225,VALID,0.979102,
2000-07-28, 00:50:00,VALID,916.849,VALID,0,VALID,97.4507,VALID,0,VALID,18.1336,VALID,225,VALID,0.982772,
2000-07-28, 00:51:00,VALID,916.832,VALID,0,VALID,97.5181,VALID,0,VALID,18.144,VALID,225,VALID,1.14165,
2000-07-28, 00:52:00,VALID,916.821,VALID,0,VALID,97.6224,VALID,0,VALID,18.1269,VALID,225,VALID,0.99668,
2000-07-28, 00:53:00,VALID,916.805,VALID,0,VALID,97.7063,VALID,0,VALID,18.114,VALID,220,VALID,1.07715,
2000-07-28, 00:54:00,VALID,916.792,VALID,0,VALID,97.6707,VALID,0,VALID,18.1147,VALID,229,VALID,1.20593,
2000-07-28, 00:55:00,VALID,916.788,VALID,0,VALID,97.6719,VALID,-0.0509425,VALID,18.0983,VALID,212,VALID,1.17989,
2000-07-28, 00:56:00,VALID,916.761,VALID,0,VALID,97.7025,VALID,0,VALID,18.1043,VALID,231,VALID,1.02441,
2000-07-28, 00:57:00,VALID,916.745,VALID,0,VALID,97.6681,VALID,-0.0169808,VALID,18.1077,VALID,223,VALID,0.698828,
2000-07-28, 00:58:00,VALID,916.729,VALID,0,VALID,97.6541,VALID,0,VALID,18.1207,VALID,216,VALID,0.82512,
2000-07-28, 00:59:00,VALID,916.72,VALID,0,VALID,97.658,VALID,-0.0169808,VALID,18.1174,VALID,226,VALID,0.920641,
2000-07-28, 01:00:00,VALID,916.709,VALID,0,VALID,97.6516,VALID,-0.0169808,VALID,18.1179,VALID,218,VALID,0.713281,
2000-07-28, 01:01:00,VALID,916.712,VALID,0,VALID,97.6643,VALID,0,VALID,18.1142,VALID,216,VALID,0.783984,
2000-07-28, 01:02:00,VALID,916.712,VALID,0,VALID,97.6669,VALID,0,VALID,18.1147,VALID,215,VALID,0.778846,
2000-07-28, 01:03:00,VALID,916.706,VALID,0,VALID,97.6669,VALID,0,VALID,18.105,VALID,217,VALID,0.742393,
2000-07-28, 01:04:00,VALID,916.695,VALID,0,VALID,97.6694,VALID,0,VALID,18.0978,VALID,217,VALID,0.755273,
2000-07-28, 01:05:00,VALID,916.696,VALID,0,VALID,97.5995,VALID,0.0169808,VALID,18.0978,VALID,188,VALID,0.852734,
2000-07-28, 01:06:00,VALID,916.691,VALID,0,VALID,97.602,VALID,0.0169808,VALID,18.1011,VALID,182,VALID,0.647436,
2000-07-28, 01:07:00,VALID,916.692,VALID,0,VALID,97.5588,VALID,0,VALID,18.1082,VALID,180,VALID,0.939556,
2000-07-28, 01:08:00,VALID,916.707,VALID,0,VALID,97.3223,VALID,-0.0169808,VALID,18.1022,VALID,200,VALID,1.30293,
2000-07-28, 01:09:00,VALID,916.703,VALID,0,VALID,97.2358,VALID,-0.0339617,VALID,18.1015,VALID,200,VALID,0.693555,
2000-07-28, 01:10:00,VALID,916.695,VALID,0,VALID,97.0807,VALID,0,VALID,18.0983,VALID,201,VALID,1.05689,
2000-07-28, 01:11:00,VALID,916.705,VALID,0,VALID,97.0679,VALID,0,VALID,18.1114,VALID,214,VALID,0.771793,
2000-07-28, 01:12:00,VALID,916.706,VALID,0,VALID,97.0603,VALID,0,VALID,18.1147,VALID,225,VALID,0.611719,
2000-07-28, 01:13:00,VALID,916.718,VALID,0,VALID,96.9611,VALID,0,VALID,18.1013,VALID,209,VALID,0.624023,
2000-07-28, 01:14:00,VALID,916.694,VALID,0,VALID,96.7945,VALID,-0.0339617,VALID,18.0856,VALID,215,VALID,0.709736,
2000-07-28, 01:15:00,VALID,916.699,VALID,0,VALID,96.5669,VALID,0,VALID,18.0692,VALID,228,VALID,0.672081,
2000-07-28, 01:16:00,VALID,916.695,VALID,0,VALID,96.4805,VALID,-0.0679233,VALID,18.0759,VALID,222,VALID,0.752148,
2000-07-28, 01:17:00,VALID,916.679,VALID,0,VALID,96.4181,VALID,-0.0339617,VALID,18.0662,VALID,201,VALID,0.970898,
2000-07-28, 01:18:00,VALID,916.679,VALID,0,VALID,96.4474,VALID,-0.0339617,VALID,18.0727,VALID,204,VALID,0.654046,
2000-07-28, 01:19:00,VALID,916.67,VALID,0,VALID,96.5555,VALID,0,VALID,18.0759,VALID,192,VALID,0.653988,
2000-07-28, 01:20:00,VALID,916.658,VALID,0,VALID,96.6903,VALID,-0.0339617,VALID,18.0893,VALID,205,VALID,0.24668,
2000-07-28, 01:21:00,VALID,916.65,VALID,0,VALID,96.7996,VALID,-0.0509425,VALID,18.0856,VALID,200,VALID,0.223047,
2000-07-28, 01:22:00,VALID,916.63,VALID,0,VALID,96.8657,VALID,-0.0169808,VALID,18.0764,VALID,199,VALID,0.851362,
2000-07-28, 01:23:00,VALID,916.614,VALID,0,VALID,96.8886,VALID,-0.0509425,VALID,18.0734,VALID,204,VALID,0.778577,
2000-07-28, 01:24:00,VALID,916.6,VALID,0,VALID,96.9395,VALID,-0.0339617,VALID,18.0697,VALID,226,VALID,0.350781,
2000-07-28, 01:25:00,VALID,916.585,VALID,0,VALID,96.9103,VALID,-0.0169808,VALID,18.0572,VALID,224,VALID,0.818555,
2000-07-28, 01:26:00,VALID,916.574,VALID,0,VALID,96.7755,VALID,-0.0679233,VALID,18.054,VALID,228,VALID,0.931891,
2000-07-28, 01:27:00,VALID,916.559,VALID,0,VALID,96.5631,VALID,-0.0169808,VALID,18.0406,VALID,228,VALID,1.17167,
2000-07-28, 01:28:00,VALID,916.555,VALID,0.2,VALID,96.4385,VALID,0,VALID,18.0438,VALID,220,VALID,1.01406,
2000-07-28, 01:29:00,VALID,916.523,VALID,0,VALID,96.3927,VALID,0,VALID,18.0372,VALID,227,VALID,1.27949,
2000-07-28, 01:30:00,VALID,916.52,VALID,0,VALID,96.3533,VALID,-0.0339617,VALID,18.0508,VALID,223,VALID,1.03045,
2000-07-28, 01:31:00,VALID,916.524,VALID,0,VALID,96.3749,VALID,-0.0509425,VALID,18.057,VALID,222,VALID,1.38775,
2000-07-28, 01:32:00,VALID,916.512,VALID,0,VALID,96.3889,VALID,-0.0849042,VALID,18.0637,VALID,210,VALID,1.35137,
2000-07-28, 01:33:00,VALID,916.516,VALID,0,VALID,96.3113,VALID,-0.0509425,VALID,18.0538,VALID,223,VALID,1.16562,
2000-07-28, 01:34:00,VALID,916.525,VALID,0,VALID,96.394,VALID,-0.0339617,VALID,18.0538,VALID,225,VALID,1.1262,
2000-07-28, 01:35:00,VALID,916.524,VALID,0,VALID,96.483,VALID,-0.0679233,VALID,18.0542,VALID,219,VALID,1.49589,
2000-07-28, 01:36:00,VALID,916.535,VALID,0,VALID,96.4677,VALID,-0.0339617,VALID,18.0508,VALID,210,VALID,1.15391,
2000-07-28, 01:37:00,VALID,916.543,VALID,0,VALID,96.4817,VALID,-0.0339617,VALID,18.0408,VALID,221,VALID,1.12031,
2000-07-28, 01:38:00,VALID,916.532,VALID,0,VALID,96.5618,VALID,0,VALID,18.0411,VALID,212,VALID,0.905449,
2000-07-28, 01:39:00,VALID,916.534,VALID,0,VALID,96.5631,VALID,-0.0169808,VALID,18.0374,VALID,211,VALID,1.17414,
2000-07-28, 01:40:00,VALID,916.52,VALID,0,VALID,96.6178,VALID,0,VALID,18.0404,VALID,200,VALID,1.1791,
2000-07-28, 01:41:00,VALID,916.486,VALID,0,VALID,96.5796,VALID,0,VALID,18.0475,VALID,216,VALID,1.20898,
2000-07-28, 01:42:00,VALID,916.468,VALID,0,VALID,96.6127,VALID,0.0339617,VALID,18.0593,VALID,225,VALID,0.674679,
2000-07-28, 01:43:00,VALID,916.458,VALID,0,VALID,96.5275,VALID,0.0339617,VALID,18.0625,VALID,220,VALID,1.08121,
2000-07-28, 01:44:00,VALID,916.441,VALID,0,VALID,96.5173,VALID,0.0339617,VALID,18.0623,VALID,211,VALID,1.2252,
2000-07-28, 01:45:00,VALID,916.432,VALID,0,VALID,96.394,VALID,0.0509425,VALID,18.0487,VALID,228,VALID,1.35488,
2000-07-28, 01:46:00,VALID,916.426,VALID,0,VALID,96.0964,VALID,0.0169808,VALID,18.0524,VALID,225,VALID,1.61438,
2000-07-28, 01:47:00,VALID,916.443,VALID,0,VALID,95.9362,VALID,0.0169808,VALID,18.0683,VALID,237,VALID,1.54729,
2000-07-28, 01:48:00,VALID,916.465,VALID,0,VALID,95.7569,VALID,0.0509425,VALID,18.0815,VALID,229,VALID,1.30586,
2000-07-28, 01:49:00,VALID,916.472,VALID,0,VALID,95.673,VALID,0.0679233,VALID,18.0849,VALID,224,VALID,1.18672,
2000-07-28, 01:50:00,VALID,916.486,VALID,0,VALID,95.5153,VALID,0.101885,VALID,18.0946,VALID,235,VALID,1.42268,
2000-07-28, 01:51:00,VALID,916.495,VALID,0,VALID,95.6094,VALID,0.0339617,VALID,18.0909,VALID,234,VALID,1.38446,
2000-07-28, 01:52:00,VALID,916.496,VALID,0,VALID,95.6196,VALID,0.0679233,VALID,18.0881,VALID,239,VALID,1.80332,
2000-07-28, 01:53:00,VALID,916.478,VALID,0,VALID,95.6539,VALID,0.0679233,VALID,18.0817,VALID,231,VALID,1.99766,
2000-07-28, 01:54:00,VALID,916.452,VALID,0,VALID,95.7073,VALID,0.0169808,VALID,18.0718,VALID,219,VALID,1.36478,
2000-07-28, 01:55:00,VALID,916.439,VALID,0,VALID,95.6577,VALID,0.0509425,VALID,18.0688,VALID,234,VALID,1.45066,
2000-07-28, 01:56:00,VALID,916.416,VALID,0,VALID,95.6666,VALID,0.0169808,VALID,18.0653,VALID,230,VALID,1.84434,
2000-07-28, 01:57:00,VALID,916.406,VALID,0,VALID,95.5318,VALID,-0.0679233,VALID,18.0568,VALID,222,VALID,1.29922,
2000-07-28, 01:58:00,VALID,916.392,VALID,0,VALID,95.8116,VALID,-0.101885,VALID,18.0734,VALID,231,VALID,0.782452,
2000-07-28, 01:59:00,VALID,916.386,VALID,0,VALID,95.9566,VALID,-0.0849042,VALID,18.077,VALID,246,VALID,1.54379,
2000-07-28, 02:00:00,VALID,916.378,VALID,0,VALID,96.0214,VALID,-0.0849042,VALID,18.0512,VALID,233,VALID,1.29043,
2000-07-28, 02:01:00,VALID,916.376,VALID,0,VALID,96.0507,VALID,-0.101885,VALID,18.051,VALID,220,VALID,1.48457,
2000-07-28, 02:02:00,VALID,916.365,VALID,0,VALID,96.1969,VALID,-0.0849042,VALID,18.0475,VALID,234,VALID,1.69171,
2000-07-28, 02:03:00,VALID,916.372,VALID,0,VALID,95.9349,VALID,-0.101885,VALID,18.048,VALID,236,VALID,2.02776,
2000-07-28, 02:04:00,VALID,916.358,VALID,0,VALID,95.9146,VALID,-0.0509425,VALID,18.0508,VALID,222,VALID,1.63926,
2000-07-28, 02:05:00,VALID,916.342,VALID,0,VALID,96.0621,VALID,-0.0679233,VALID,18.0538,VALID,246,VALID,0.789453,
2000-07-28, 02:06:00,VALID,916.32,VALID,0,VALID,96.3876,VALID,-0.0849042,VALID,18.0574,VALID,240,VALID,0.958333,
2000-07-28, 02:07:00,VALID,916.302,VALID,0,VALID,96.5974,VALID,-0.101885,VALID,18.0378,VALID,241,VALID,0.98787,
2000-07-28, 02:08:00,VALID,916.282,VALID,0,VALID,96.8429,VALID,-0.0509425,VALID,18.0182,VALID,236,VALID,1.07617,
2000-07-28, 02:09:00,VALID,916.272,VALID,0,VALID,96.9331,VALID,-0.0679233,VALID,17.9926,VALID,240,VALID,0.899414,
2000-07-28, 02:10:00,VALID,916.243,VALID,0,VALID,97.0654,VALID,-0.0849042,VALID,17.9702,VALID,239,VALID,1.20433,
2000-07-28, 02:11:00,VALID,916.24,VALID,0,VALID,97.0387,VALID,-0.101885,VALID,17.9407,VALID,240,VALID,1.22368,
2000-07-28, 02:12:00,VALID,916.231,VALID,0,VALID,96.7933,VALID,0.0339617,VALID,17.9269,VALID,246,VALID,1.26719,
2000-07-28, 02:13:00,VALID,916.239,VALID,0,VALID,96.7093,VALID,0.0169808,VALID,17.9364,VALID,237,VALID,0.886914,
2000-07-28, 02:14:00,VALID,916.252,VALID,0,VALID,96.6623,VALID,0.0339617,VALID,17.9525,VALID,241,VALID,1.01943,
2000-07-28, 02:15:00,VALID,916.261,VALID,0,VALID,96.5746,VALID,0.0509425,VALID,17.9518,VALID,231,VALID,1.27405,
2000-07-28, 02:16:00,VALID,916.258,VALID,0,VALID,96.6089,VALID,0.0509425,VALID,17.9548,VALID,227,VALID,0.920898,
2000-07-28, 02:17:00,VALID,916.243,VALID,0,VALID,96.5987,VALID,0.0509425,VALID,17.9553,VALID,219,VALID,1.10938,
2000-07-28, 02:18:00,VALID,916.241,VALID,0,VALID,96.558,VALID,0.0679233,VALID,17.9523,VALID,231,VALID,1.11879,
2000-07-28, 02:19:00,VALID,916.226,VALID,0,VALID,96.4805,VALID,0.0509425,VALID,17.959,VALID,228,VALID,1.32484,
2000-07-28, 02:20:00,VALID,916.216,VALID,0,VALID,96.5084,VALID,0.0169808,VALID,17.9689,VALID,229,VALID,1.29492,
2000-07-28, 02:21:00,VALID,916.202,VALID,0,VALID,96.6038,VALID,0.0509425,VALID,17.962,VALID,215,VALID,1.21816,
2000-07-28, 02:22:00,VALID,916.193,VALID,0,VALID,96.4614,VALID,0.0679233,VALID,17.9553,VALID,218,VALID,2.01422,
2000-07-28, 02:23:00,VALID,916.186,VALID,0,VALID,96.3342,VALID,0.0509425,VALID,17.9751,VALID,214,VALID,1.4266,
2000-07-28, 02:24:00,VALID,916.177,VALID,0,VALID,96.3444,VALID,0.0509425,VALID,17.9813,VALID,220,VALID,1.67949,
2000-07-28, 02:25:00,VALID,916.179,VALID,0,VALID,96.2274,VALID,0.0509425,VALID,17.9744,VALID,222,VALID,1.68418,
2000-07-28, 02:26:00,VALID,916.17,VALID,0,VALID,96.2236,VALID,0.0509425,VALID,17.9816,VALID,227,VALID,1.91667,
2000-07-28, 02:27:00,VALID,916.178,VALID,0,VALID,96.3024,VALID,0.0169808,VALID,17.9871,VALID,220,VALID,1.4447,
2000-07-28, 02:28:00,VALID,916.175,VALID,0,VALID,96.3851,VALID,0.0509425,VALID,17.9876,VALID,210,VALID,1.05176,
2000-07-28, 02:29:00,VALID,916.18,VALID,0,VALID,96.3444,VALID,0.0679233,VALID,17.9844,VALID,219,VALID,0.751172,
2000-07-28, 02:30:00,VALID,916.178,VALID,0,VALID,96.2579,VALID,0.0509425,VALID,17.9813,VALID,227,VALID,1.70212,
2000-07-28, 02:31:00,VALID,916.173,VALID,0,VALID,96.1473,VALID,0.0169808,VALID,17.9781,VALID,229,VALID,1.40337,
2000-07-28, 02:32:00,VALID,916.174,VALID,0,VALID,96.1168,VALID,0.0339617,VALID,17.991,VALID,233,VALID,1.0457,
2000-07-28, 02:33:00,VALID,916.168,VALID,0,VALID,96.0328,VALID,0.0679233,VALID,17.9846,VALID,209,VALID,1.03145,
2000-07-28, 02:34:00,VALID,916.167,VALID,0,VALID,96.0443,VALID,0.0169808,VALID,17.988,VALID,225,VALID,0.522035,
2000-07-28, 02:35:00,VALID,916.137,VALID,0,VALID,96.1206,VALID,0.0339617,VALID,17.9945,VALID,180,VALID,0.445724,
2000-07-28, 02:36:00,VALID,916.118,VALID,0,VALID,95.9591,VALID,0,VALID,17.9816,VALID,190,VALID,1.04668,
2000-07-28, 02:37:00,VALID,916.098,VALID,0,VALID,96.2185,VALID,0.0169808,VALID,17.9878,VALID,171,VALID,0.377148,
2000-07-28, 02:38:00,VALID,916.082,VALID,0,VALID,96.0735,VALID,0.0509425,VALID,17.9749,VALID,207,VALID,0.610176,
2000-07-28, 02:39:00,VALID,916.051,VALID,0,VALID,95.9985,VALID,0.0169808,VALID,17.9721,VALID,218,VALID,0.396382,
2000-07-28, 02:40:00,VALID,916.033,VALID,0,VALID,95.9833,VALID,0.0169808,VALID,17.9525,VALID,218,VALID,0.939258,
2000-07-28, 02:41:00,VALID,916.014,VALID,0,VALID,96.0265,VALID,0.0509425,VALID,17.9493,VALID,205,VALID,0.756641,
2000-07-28, 02:42:00,VALID,915.995,VALID,0,VALID,96.0494,VALID,0.0339617,VALID,17.9396,VALID,203,VALID,0.693309,
2000-07-28, 02:43:00,VALID,915.969,VALID,0,VALID,96.2465,VALID,0,VALID,17.9269,VALID,197,VALID,0.270354,
2000-07-28, 02:44:00,VALID,915.966,VALID,0,VALID,96.4499,VALID,0.0169808,VALID,17.9237,VALID,191,VALID,0.825391,
2000-07-28, 02:45:00,VALID,915.941,VALID,0,VALID,96.4792,VALID,0,VALID,17.8978,VALID,162,VALID,0.724609,
2000-07-28, 02:46:00,VALID,915.931,VALID,0,VALID,96.6483,VALID,0,VALID,17.8854,VALID,162,VALID,0.515625,
2000-07-28, 02:47:00,VALID,915.926,VALID,0,VALID,96.6559,VALID,0.0169808,VALID,17.8625,VALID,147,VALID,0.814762,
2000-07-28, 02:48:00,VALID,915.92,VALID,0,VALID,96.4932,VALID,0,VALID,17.8658,VALID,152,VALID,1.23887,
2000-07-28, 02:49:00,VALID,915.919,VALID,0,VALID,96.2757,VALID,-0.0169808,VALID,17.8821,VALID,147,VALID,1.2873,
2000-07-28, 02:50:00,VALID,915.904,VALID,0,VALID,95.8561,VALID,0.0169808,VALID,17.9209,VALID,152,VALID,1.14383,
2000-07-28, 02:51:00,VALID,915.894,VALID,0,VALID,95.6717,VALID,0,VALID,17.9564,VALID,178,VALID,0.728002,
2000-07-28, 02:52:00,VALID,915.897,VALID,0,VALID,95.5471,VALID,0.0169808,VALID,17.9786,VALID,197,VALID,0.300195,
2000-07-28, 02:53:00,VALID,915.888,VALID,0,VALID,95.603,VALID,-0.0169808,VALID,17.9922,VALID,226,VALID,0.450781,
2000-07-28, 02:54:00,VALID,915.878,VALID,0,VALID,95.8192,VALID,0.0169808,VALID,18.0051,VALID,187,VALID,0.116587,
2000-07-28, 02:55:00,VALID,915.878,VALID,0,VALID,95.7798,VALID,0,VALID,18.0049,VALID,243,VALID,0.0106908,
2000-07-28, 02:56:00,VALID,915.87,VALID,0,VALID,95.6755,VALID,0,VALID,17.9818,VALID,227,VALID,0.928711,
2000-07-28, 02:57:00,VALID,915.858,VALID,0,VALID,95.7175,VALID,0,VALID,17.979,VALID,202,VALID,0.982031,
2000-07-28, 02:58:00,VALID,915.85,VALID,0,VALID,95.8828,VALID,0,VALID,17.959,VALID,162,VALID,0.741186,
2000-07-28, 02:59:00,VALID,915.832,VALID,0,VALID,96.1524,VALID,0.0169808,VALID,17.9624,VALID,114,VALID,1.03988,
2000-07-28, 03:00:00,VALID,915.847,VALID,0,VALID,96.2427,VALID,0,VALID,17.9693,VALID,126,VALID,1.28086,
2000-07-28, 03:01:00,VALID,915.854,VALID,0,VALID,96.2083,VALID,0.0169808,VALID,17.9631,VALID,139,VALID,1.13125,
2000-07-28, 03:02:00,VALID,915.864,VALID,0,VALID,96.099,VALID,0.0169808,VALID,17.9532,VALID,164,VALID,0.991386,
2000-07-28, 03:03:00,VALID,915.899,VALID,0,VALID,96.2439,VALID,0,VALID,17.9465,VALID,189,VALID,0.594984,
2000-07-28, 03:04:00,VALID,915.935,VALID,0,VALID,96.3902,VALID,0,VALID,17.941,VALID,208,VALID,0.501367,
2000-07-28, 03:05:00,VALID,915.964,VALID,0,VALID,96.5873,VALID,-0.0169808,VALID,17.9244,VALID,211,VALID,0.333008,
2000-07-28, 03:06:00,VALID,915.983,VALID,0,VALID,96.6903,VALID,0,VALID,17.928,VALID,216,VALID,0.490986,
2000-07-28, 03:07:00,VALID,915.983,VALID,0,VALID,96.7221,VALID,0.0169808,VALID,17.9015,VALID,209,VALID,0.598684,
2000-07-28, 03:08:00,VALID,916.002,VALID,0,VALID,96.6114,VALID,0,VALID,17.8849,VALID,203,VALID,0.609375,
2000-07-28, 03:09:00,VALID,916.008,VALID,0,VALID,96.5313,VALID,0,VALID,17.8948,VALID,165,VALID,0.442969,
2000-07-28, 03:10:00,VALID,916.014,VALID,0,VALID,96.6801,VALID,0.0169808,VALID,17.9078,VALID,143,VALID,0.510417,
2000-07-28, 03:11:00,VALID,916.02,VALID,0,VALID,96.8594,VALID,0.0169808,VALID,17.9138,VALID,136,VALID,0.160773,
2000-07-28, 03:12:00,VALID,916.029,VALID,0,VALID,96.839,VALID,0.0169808,VALID,17.9142,VALID,164,VALID,0,
2000-07-28, 03:13:00,VALID,916.03,VALID,0,VALID,96.8098,VALID,0,VALID,17.9017,VALID,186,VALID,0.0310547,
2000-07-28, 03:14:00,VALID,916.043,VALID,0,VALID,96.8162,VALID,0.0169808,VALID,17.8852,VALID,194,VALID,0.661058,
2000-07-28, 03:15:00,VALID,916.047,VALID,0,VALID,96.9204,VALID,0,VALID,17.8847,VALID,217,VALID,0.473067,
2000-07-28, 03:16:00,VALID,916.065,VALID,0,VALID,96.8734,VALID,0.0169808,VALID,17.8882,VALID,224,VALID,0.682813,
2000-07-28, 03:17:00,VALID,916.068,VALID,0,VALID,96.7691,VALID,0.0169808,VALID,17.8787,VALID,218,VALID,0.477148,
2000-07-28, 03:18:00,VALID,916.066,VALID,0,VALID,96.6966,VALID,0.0169808,VALID,17.8852,VALID,233,VALID,0.692909,
2000-07-28, 03:19:00,VALID,916.059,VALID,0,VALID,96.5873,VALID,0,VALID,17.8856,VALID,229,VALID,1.059,
2000-07-28, 03:20:00,VALID,916.057,VALID,0,VALID,96.5822,VALID,0.0169808,VALID,17.8623,VALID,239,VALID,0.951563,
2000-07-28, 03:21:00,VALID,916.037,VALID,0,VALID,96.6381,VALID,0.0339617,VALID,17.8623,VALID,214,VALID,0.85293,
2000-07-28, 03:22:00,VALID,916.03,VALID,0,VALID,96.6903,VALID,0,VALID,17.8393,VALID,192,VALID,0.825721,
2000-07-28, 03:23:00,VALID,916.011,VALID,0,VALID,96.675,VALID,0,VALID,17.8434,VALID,185,VALID,0.923725,
2000-07-28, 03:24:00,VALID,916.022,VALID,0,VALID,96.6865,VALID,0,VALID,17.8203,VALID,184,VALID,1.11484,
2000-07-28, 03:25:00,VALID,916.02,VALID,0,VALID,96.6063,VALID,0.0169808,VALID,17.8173,VALID,181,VALID,0.997656,
2000-07-28, 03:26:00,VALID,916.02,VALID,0,VALID,96.6648,VALID,0,VALID,17.8238,VALID,184,VALID,0.789263,
2000-07-28, 03:27:00,VALID,916.021,VALID,0,VALID,96.7984,VALID,0,VALID,17.8238,VALID,211,VALID,0.79009,
2000-07-28, 03:28:00,VALID,916.034,VALID,0,VALID,97.0044,VALID,0,VALID,17.8335,VALID,219,VALID,1.02207,
2000-07-28, 03:29:00,VALID,916.032,VALID,0,VALID,97.0387,VALID,0,VALID,17.8171,VALID,198,VALID,0.880859,
2000-07-28, 03:30:00,VALID,916.041,VALID,0,VALID,96.9306,VALID,0.0169808,VALID,17.8076,VALID,184,VALID,0.967949,
2000-07-28, 03:31:00,VALID,916.019,VALID,0,VALID,96.806,VALID,0.0339617,VALID,17.8044,VALID,171,VALID,1.0442,
2000-07-28, 03:32:00,VALID,916.03,VALID,0,VALID,96.7602,VALID,0,VALID,17.8173,VALID,187,VALID,0.938867,
2000-07-28, 03:33:00,VALID,916.028,VALID,0,VALID,96.6025,VALID,0,VALID,17.8173,VALID,186,VALID,0.82832,
2000-07-28, 03:34:00,VALID,916.022,VALID,0,VALID,96.5542,VALID,0.0169808,VALID,17.8203,VALID,195,VALID,0.76863,
2000-07-28, 03:35:00,VALID,915.597,VALID,0,VALID,96.6903,VALID,0,VALID,17.8432,VALID,196,VALID,0.612253,